Theta_e
349 345 346 345 350 356 362 360 354 358 361 348 345 350 350 354 356 356 359 355 354 357 355 353 351 353 355 355 357 356 355 359 359 356 354 352 350 351 353 351 353 353 354 354 354 354 354 354 354 354 353 354 354 351 351 352 352 352 352 353 355 356 353 351 351 351 350 349 349 348 348 348 346 345 344 343 342 342 344 344 343 342 343 344 344 344 345 346 347 347 347 347 347 348 348 347 347
352 346 348 351 354 362 368 361 353 351 351 343 344 350 352 354 356 356 359 357 358 358 356 353 353 355 354 354 356 355 354 354 354 354 353 351 352 353 352 353 353 354 354 354 354 354 355 355 354 354 354 355 355 353 352 351 352 353 354 355 355 355 353 351 352 352 350 349 349 348 347 347 346 346 346 344 343 343 345 344 342 341 341 342 343 346 347 347 347 346 346 346 346 348 347 347 347
352 348 353 357 360 364 367 359 348 344 345 342 343 351 354 356 358 358 358 358 358 354 354 354 356 354 354 359 358 357 354 351 349 351 352 352 353 353 353 353 353 354 354 354 354 354 355 355 354 354 355 356 355 355 355 353 354 354 354 354 354 354 353 351 352 351 349 348 347 346 346 346 346 347 347 345 343 344 344 342 341 339 340 342 344 347 348 347 346 345 345 345 345 346 347 346 346
351 352 355 361 367 366 367 364 353 346 342 342 345 352 355 358 360 359 357 357 354 353 354 355 357 353 355 362 357 355 354 351 350 351 352 352 352 353 353 353 353 353 354 355 354 354 354 354 353 353 355 355 355 356 356 354 354 353 354 353 352 352 352 352 351 348 346 345 344 344 344 345 345 346 345 344 343 343 342 341 340 340 342 343 344 346 346 347 346 345 345 346 346 346 345 345 345
351 354 357 362 369 366 365 361 355 349 341 345 349 354 357 358 359 356 355 354 353 355 355 355 358 353 352 356 353 356 355 351 351 351 352 352 352 353 354 353 353 353 355 355 354 354 354 353 352 352 353 354 355 356 354 354 354 354 353 352 351 350 350 349 347 344 342 342 343 344 345 345 345 346 344 344 344 344 344 343 342 342 343 343 343 344 346 348 348 346 346 347 347 346 345 344 345
350 354 355 358 362 360 357 343 338 340 340 350 353 354 358 355 355 354 354 353 352 355 353 354 356 354 354 352 352 354 352 351 352 351 352 352 352 353 354 354 353 354 355 355 354 353 353 352 351 352 352 352 354 354 354 353 354 353 352 351 352 351 349 347 345 343 342 342 344 344 345 346 345 345 344 344 344 344 345 344 343 342 342 342 342 343 346 347 346 345 346 346 344 343 343 343 344
350 356 358 360 358 356 352 336 332 338 339 348 353 354 355 352 353 353 355 354 353 352 352 353 352 356 357 354 354 352 350 352 351 351 352 352 353 353 354 354 354 354 355 355 354 353 353 351 350 351 352 351 352 353 354 353 353 352 350 351 351 351 350 348 348 347 347 346 346 345 344 344 343 344 343 344 344 344 344 344 342 342 342 342 342 342 343 343 342 342 343 342 341 341 341 341 343
351 358 361 363 360 357 350 334 334 344 346 348 350 352 351 352 352 353 355 355 355 353 352 354 351 359 359 354 357 354 351 352 351 351 351 352 353 353 354 354 353 354 355 355 354 353 353 352 351 350 351 352 353 353 352 352 351 350 349 349 350 350 350 349 349 349 348 348 347 345 344 343 343 343 343 343 344 343 343 343 343 343 343 342 342 341 340 340 340 340 341 340 340 342 343 342 343
349 354 354 357 356 351 342 335 337 346 350 349 350 352 351 352 351 352 355 355 356 354 354 355 354 359 358 355 357 353 352 352 351 352 352 353 353 353 354 353 353 353 355 355 354 354 354 353 352 351 351 353 354 354 352 352 351 350 350 350 350 349 349 348 348 348 348 347 346 345 345 344 344 344 344 344 344 343 343 343 344 344 343 344 344 343 341 340 340 340 340 339 340 342 343 343 344
353 353 351 357 353 339 332 335 340 345 349 349 351 352 351 351 351 352 354 356 356 357 356 355 358 359 357 358 358 353 353 352 351 353 352 353 352 353 353 353 352 352 354 355 355 355 355 355 354 353 352 352 353 354 353 352 351 351 350 349 348 347 346 347 347 348 348 348 347 347 347 347 347 347 345 345 344 343 343 344 344 343 344 345 343 341 341 342 341 339 338 339 340 342 342 344 345
358 349 350 360 350 334 330 334 337 343 349 349 350 350 351 350 352 354 355 358 358 359 357 355 358 357 357 359 357 353 353 352 353 354 353 352 352 352 352 353 352 352 353 354 355 355 355 355 354 354 353 352 352 352 351 350 349 349 347 346 345 344 345 346 346 346 346 348 348 348 348 348 349 348 347 346 347 346 345 346 344 345 345 344 341 340 340 342 342 340 340 342 344 344 345 347 347
355 349 355 361 348 339 336 336 338 345 349 349 352 351 351 350 354 356 356 360 359 358 356 356 356 355 360 360 356 352 352 353 353 353 353 353 352 352 352 352 351 351 351 353 354 354 355 355 354 354 352 351 350 349 349 348 347 346 345 345 344 344 345 345 345 345 345 347 347 347 346 347 348 348 348 348 349 347 347 348 347 347 345 342 341 341 342 341 341 343 345 348 349 349 348 349 348
352 353 363 353 346 349 342 340 344 349 352 352 353 351 352 352 354 355 356 359 358 359 357 355 354 356 362 360 355 351 352 353 353 354 353 352 351 352 352 351 350 350 351 351 352 353 354 354 354 354 352 350 350 349 348 347 346 346 346 346 346 346 346 346 346 346 345 346 345 344 344 345 347 347 347 347 348 348 350 351 350 349 348 347 346 346 347 346 345 346 347 349 349 349 350 350 349
352 356 369 351 345 353 342 343 348 347 350 352 352 351 353 353 353 353 356 359 357 358 355 353 352 357 360 358 356 352 352 354 353 354 352 352 352 352 352 351 350 350 351 351 351 352 354 354 353 354 353 351 351 350 349 348 347 347 348 348 348 348 348 348 347 347 346 346 344 344 344 344 345 345 345 345 346 349 352 351 349 351 352 352 351 351 351 350 350 350 348 348 348 349 351 351 349
351 357 372 356 345 345 341 345 346 345 347 351 353 352 353 352 353 352 354 359 358 354 352 353 351 356 359 357 358 353 352 354 353 354 352 353 352 352 353 352 350 349 351 352 352 352 354 354 354 355 354 352 352 351 350 349 349 348 349 349 349 349 349 349 348 348 347 346 345 345 345 345 344 343 343 343 345 349 351 348 344 348 352 353 352 352 352 351 351 351 350 350 351 351 351 351 350
347 353 367 357 342 339 342 345 343 345 346 350 353 351 355 352 350 352 351 355 356 352 352 356 351 353 357 356 356 351 352 354 353 354 353 353 353 353 352 353 351 350 352 352 353 353 354 355 354 354 353 352 351 351 350 350 350 349 350 349 349 349 349 349 349 348 347 345 344 344 344 346 345 342 341 341 343 347 349 347 342 341 347 351 352 352 352 351 351 351 351 351 352 352 351 351 351
340 347 359 350 341 338 341 345 343 346 347 351 352 351 355 352 350 351 349 351 353 352 352 354 351 351 354 354 354 351 353 354 354 355 354 355 354 354 353 353 353 352 353 353 354 355 354 354 354 354 353 352 352 351 350 350 351 350 349 350 349 350 350 349 347 345 343 342 343 342 341 344 345 343 343 343 343 345 346 345 344 342 343 348 351 351 351 352 352 351 352 352 352 352 351 351 351
341 353 353 343 345 345 343 344 341 345 348 349 350 351 353 353 352 349 350 351 351 354 353 353 354 353 353 354 353 352 354 354 355 356 355 355 354 355 354 353 354 354 354 354 354 355 354 353 354 354 353 352 352 351 350 350 351 350 349 349 350 349 349 347 344 343 342 342 345 344 341 343 345 345 347 348 345 344 344 344 345 346 348 349 350 350 350 352 351 349 351 352 351 352 350 350 349
349 357 350 349 354 349 344 343 340 344 347 348 349 351 350 352 352 349 352 353 352 356 355 354 357 356 354 353 353 353 354 354 356 356 356 355 354 355 354 354 354 354 354 354 354 354 353 352 352 353 352 352 351 351 350 350 351 350 348 347 349 348 348 347 343 343 343 343 346 345 343 343 345 345 346 347 346 346 346 347 348 350 350 350 350 350 350 351 349 349 350 350 351 351 349 348 347
349 350 349 358 356 345 343 343 341 343 345 348 350 349 350 351 350 349 351 353 354 356 356 357 359 358 356 354 353 354 353 355 356 356 356 355 355 355 354 354 354 354 354 353 354 354 354 352 351 352 352 351 351 351 351 350 350 350 347 345 347 347 346 345 343 343 343 343 345 345 344 343 343 343 343 344 346 347 348 348 348 349 349 347 347 348 349 350 350 350 351 349 351 351 349 349 347
342 345 352 357 350 344 344 342 341 342 344 348 349 351 352 350 348 348 350 355 356 354 353 356 358 357 356 354 353 353 354 355 356 356 356 355 354 354 354 354 354 354 354 353 354 354 354 353 352 353 353 352 351 351 351 350 350 350 348 346 346 346 345 344 343 343 343 342 343 343 343 343 342 342 343 344 345 347 347 346 345 346 346 345 346 348 349 350 350 350 350 350 351 351 350 349 347
339 344 350 348 345 343 344 342 342 343 345 348 349 351 351 348 348 348 351 357 357 352 350 352 354 355 355 355 353 353 354 355 356 355 355 355 354 354 354 354 354 354 354 354 354 354 354 354 353 353 352 352 351 351 351 350 349 350 348 346 345 346 345 344 344 343 342 342 342 342 343 343 344 344 345 346 347 348 347 346 346 347 347 347 348 350 351 350 349 349 349 350 351 351 351 349 347
339 343 345 344 343 343 343 342 342 344 346 348 348 349 348 348 350 348 351 356 353 349 349 350 352 354 354 355 354 353 354 354 355 355 355 354 354 353 353 354 354 354 354 354 354 354 354 354 354 352 352 352 351 350 350 350 349 349 348 346 345 345 345 345 344 342 341 342 342 343 344 344 346 347 348 349 350 350 349 347 347 348 348 349 349 350 351 350 349 349 349 351 351 352 352 349 346
337 338 342 343 342 344 343 341 342 344 345 346 347 348 348 350 352 349 351 355 352 350 349 350 351 353 354 355 354 353 354 354 355 355 355 354 354 353 353 353 353 354 354 354 354 353 353 354 353 352 351 351 351 350 350 350 348 348 347 346 345 345 345 345 344 343 342 342 342 343 344 345 347 349 350 350 351 351 349 348 348 348 348 348 348 349 350 350 349 349 350 350 351 352 352 351 348
335 335 340 340 340 343 341 340 342 343 344 346 347 348 349 350 351 350 352 354 351 350 350 351 352 353 354 354 354 354 354 355 355 355 354 354 354 353 353 353 353 353 354 354 354 353 353 353 352 351 351 351 350 350 349 349 348 347 347 346 345 344 345 345 345 345 344 343 343 343 344 346 348 350 350 350 351 350 349 348 348 348 348 348 348 348 349 349 350 350 350 350 351 352 351 352 351
331 332 339 339 341 342 341 342 343 343 345 347 348 350 352 351 350 351 353 353 351 351 351 351 352 353 355 354 354 355 355 355 355 355 355 354 353 353 353 352 353 353 353 353 353 352 352 352 351 350 350 350 350 349 348 348 348 347 347 346 345 345 344 345 346 345 345 345 345 345 346 349 350 351 351 350 350 350 349 349 349 349 349 349 349 349 349 350 350 351 350 350 351 351 350 350 349
328 334 341 341 343 343 342 344 345 346 347 347 350 352 354 351 352 356 354 351 351 352 353 352 353 354 354 354 354 354 354 354 354 355 355 354 354 353 353 353 352 352 352 353 352 350 350 350 349 349 348 349 349 348 348 348 348 347 347 346 345 345 344 345 345 345 346 347 348 349 350 351 351 351 351 350 350 350 350 350 350 349 349 350 350 350 350 350 351 351 351 351 350 351 350 350 349
329 340 345 343 345 344 344 346 346 349 349 347 350 353 353 350 355 360 354 351 352 353 354 353 353 354 354 354 354 354 353 354 354 354 355 354 354 354 354 354 352 352 351 350 350 348 348 348 347 347 347 348 348 348 348 348 348 347 346 346 345 345 345 346 346 347 349 350 351 351 351 352 352 352 351 350 350 350 350 350 350 350 350 351 351 350 350 350 351 351 351 351 350 350 350 350 350
335 344 348 347 348 346 344 347 347 349 350 348 349 353 355 354 356 358 352 351 353 353 354 353 353 354 354 354 354 354 353 353 354 354 355 354 354 355 354 354 353 352 351 348 348 348 347 345 345 346 346 347 347 347 347 348 347 347 346 346 345 345 346 348 350 350 351 352 352 352 352 352 352 352 351 351 351 350 350 349 350 350 350 351 350 349 349 350 351 351 351 351 350 350 350 350 350
342 346 347 351 347 347 347 346 348 351 350 348 349 350 353 357 355 354 352 352 353 354 355 354 354 354 353 354 354 354 353 353 354 354 354 355 354 355 355 354 354 353 351 350 350 350 348 346 345 345 346 346 346 346 347 347 347 346 346 347 347 347 347 349 352 352 352 352 352 352 352 351 352 351 352 352 352 351 350 349 350 350 350 350 350 349 348 349 350 350 350 350 351 351 350 351 351
347 345 347 351 341 341 349 347 350 353 349 348 350 349 353 358 356 353 352 352 353 355 355 354 354 354 354 353 354 354 353 352 353 354 354 354 354 354 355 354 354 353 352 352 352 351 349 348 347 346 347 347 348 348 348 348 347 347 348 350 351 351 350 351 353 353 353 352 352 352 352 352 352 352 352 352 353 352 350 350 349 349 350 349 347 345 344 344 344 344 346 348 348 349 350 350 350
346 341 339 346 338 340 351 349 351 352 350 348 345 348 356 358 355 353 352 352 353 355 355 354 354 354 354 354 354 353 353 352 352 353 354 354 354 354 354 354 354 354 353 353 353 353 353 351 351 350 350 350 351 351 350 350 349 350 352 353 353 353 352 353 353 353 352 352 352 352 352 351 352 352 352 353 353 353 351 349 348 349 349 346 343 342 342 342 342 342 345 347 346 347 348 349 349
341 341 335 338 338 341 347 348 349 350 351 349 345 353 362 359 355 352 352 352 353 355 354 354 354 354 354 354 354 354 353 353 352 352 353 354 354 354 354 354 354 354 354 353 353 354 355 354 354 353 353 353 353 353 352 351 351 352 353 353 354 354 353 353 353 353 353 352 352 352 352 352 352 352 353 353 352 350 350 349 347 347 345 343 344 345 345 344 344 344 345 346 347 347 347 348 348
335 340 338 337 339 340 342 347 349 348 351 352 350 358 364 358 355 352 352 352 352 355 355 354 354 353 354 354 353 354 354 354 352 351 351 353 353 353 354 353 353 354 354 354 354 354 354 354 354 355 355 354 354 354 353 352 351 352 353 353 354 354 353 353 352 353 353 353 352 352 353 352 351 352 352 351 350 350 350 347 343 343 344 344 345 345 345 345 345 345 345 346 347 346 346 346 347
331 333 335 333 337 340 341 345 347 349 351 352 351 356 360 356 354 353 352 352 353 354 354 353 353 353 353 354 353 353 353 353 352 350 350 351 352 352 353 353 353 353 353 354 354 354 354 354 355 355 355 355 354 354 354 352 351 352 353 354 354 354 353 352 353 353 353 353 353 353 353 352 351 352 352 351 351 351 348 344 342 343 344 343 343 342 344 344 344 345 345 345 346 346 346 346 347
334 335 336 332 333 338 343 347 346 347 351 353 350 351 358 357 354 354 352 351 353 353 353 352 352 352 352 352 352 352 352 352 350 349 350 350 351 352 352 353 353 353 353 353 354 354 354 354 355 356 355 355 354 354 354 353 352 353 354 354 354 354 353 353 353 353 353 353 353 353 353 353 353 353 352 352 353 348 344 342 342 343 342 341 339 339 341 342 343 344 344 345 345 346 346 346 347
337 336 335 333 334 336 344 349 346 348 349 350 350 351 357 356 354 354 351 352 353 352 353 352 352 351 351 351 351 351 351 351 349 348 348 348 349 350 351 352 352 352 353 353 354 354 354 354 355 355 355 355 355 354 355 353 353 354 354 354 354 354 353 352 353 353 354 354 354 354 354 353 353 353 352 352 352 347 342 343 342 342 341 340 339 338 339 341 343 344 344 345 345 346 346 345 346
336 334 331 330 332 336 344 346 344 348 348 347 352 355 356 355 354 353 352 352 353 352 352 351 351 350 349 350 350 350 349 348 348 347 346 347 348 348 350 351 351 352 352 352 353 353 354 354 354 354 355 355 355 354 354 354 353 354 355 354 354 354 353 353 354 354 354 355 354 355 355 354 353 352 351 351 351 346 343 343 342 342 342 341 341 339 340 342 343 344 344 345 345 346 346 345 345
333 333 330 326 330 335 337 342 346 346 345 348 353 354 353 352 353 353 352 352 352 350 350 349 349 349 349 349 349 348 348 349 350 348 345 345 346 348 348 349 351 351 351 352 352 353 353 353 354 354 354 355 354 354 354 354 354 354 354 355 354 353 353 353 354 355 355 354 355 355 354 353 351 350 350 351 351 347 345 344 343 344 344 342 341 340 341 342 344 345 345 345 345 345 345 344 344
332 334 329 326 332 333 329 337 347 346 346 351 354 356 359 355 352 353 351 351 351 350 349 348 347 348 348 348 348 348 348 349 350 349 346 345 345 346 347 348 350 350 351 351 352 352 353 353 353 353 354 354 354 354 354 354 355 355 354 354 353 353 354 354 355 355 354 353 353 353 351 349 348 348 349 350 350 348 347 346 345 345 344 341 340 341 342 343 344 344 344 344 345 345 344 344 343
330 333 330 331 335 332 332 339 344 345 343 348 353 350 356 358 353 354 351 349 352 350 350 350 348 348 348 347 347 347 347 347 349 349 347 345 344 346 347 347 349 349 350 350 351 352 352 353 353 353 353 353 353 353 354 355 355 355 354 354 354 355 354 355 355 353 352 352 351 349 346 345 345 345 347 350 350 349 348 345 343 341 339 339 340 341 341 342 344 343 342 343 344 344 344 343 343
325 328 332 337 339 336 340 343 340 337 335 344 349 338 345 361 355 352 353 350 351 351 352 352 350 350 349 349 349 347 347 347 348 350 348 346 345 345 346 347 348 349 350 350 350 351 352 352 352 352 353 353 353 353 354 354 355 354 354 354 354 354 354 354 353 352 352 351 347 344 342 342 341 342 345 349 349 346 343 341 339 337 337 338 341 341 340 342 342 340 339 341 343 343 343 342 342
321 329 333 334 339 338 340 341 336 332 333 343 346 335 341 356 352 350 353 351 351 351 351 350 350 351 350 349 348 348 347 347 348 349 349 347 346 346 346 346 348 348 349 350 350 351 351 352 352 352 352 352 352 352 353 354 354 354 353 354 355 354 355 354 352 351 350 345 341 339 339 338 338 339 342 345 343 340 339 338 336 336 337 338 339 339 339 340 340 339 338 338 340 342 342 341 341
325 334 333 331 336 338 340 338 332 334 338 342 344 340 337 340 346 351 352 352 352 351 350 349 349 349 350 350 349 349 347 347 349 350 351 349 347 347 347 347 347 348 349 349 350 350 351 351 351 352 351 352 351 351 353 353 353 353 353 354 354 354 355 354 352 351 346 339 337 338 336 336 336 335 337 339 337 335 337 338 336 336 337 338 338 338 338 339 339 338 337 337 338 339 340 339 339
334 337 330 329 331 335 340 336 331 336 336 334 341 341 333 337 351 356 351 351 352 351 349 349 348 348 349 350 349 349 348 347 348 349 351 350 347 348 347 347 347 348 349 349 349 350 350 351 351 351 351 351 351 351 352 353 353 353 353 354 354 354 355 354 352 351 343 336 337 337 335 336 336 335 335 334 333 335 339 339 337 337 338 337 337 337 337 338 338 338 337 337 337 338 338 338 337
334 330 328 331 334 336 339 336 333 334 331 330 336 336 329 336 350 351 347 348 349 350 349 346 347 347 348 349 349 349 349 347 347 349 351 349 348 349 348 348 348 348 349 349 350 350 350 351 351 351 351 351 351 351 352 353 353 353 353 354 354 354 355 353 353 350 341 336 337 336 336 336 336 336 336 333 333 337 341 339 337 337 338 336 335 335 335 337 338 338 336 335 335 336 337 337 336
328 328 329 330 338 346 351 350 339 329 330 332 333 334 330 332 343 347 346 349 349 349 350 347 347 347 347 348 349 349 349 348 348 349 351 349 349 349 349 349 349 349 349 350 350 351 350 351 351 351 351 351 352 352 353 352 353 353 353 354 354 355 355 353 352 349 342 337 337 336 336 337 337 337 336 335 334 336 338 338 338 338 338 336 334 334 334 334 335 335 333 332 332 333 335 336 336
325 334 331 323 331 339 342 343 334 326 332 338 335 335 331 327 337 348 348 348 350 349 349 349 347 346 346 346 347 348 349 348 348 349 352 351 351 351 350 350 350 350 350 351 351 352 351 351 351 351 351 352 353 353 353 353 353 354 354 354 355 356 355 353 352 348 342 338 336 336 337 337 337 337 337 336 335 335 336 337 339 339 337 337 335 334 335 334 334 334 333 332 331 332 333 334 335
327 333 326 318 322 323 323 330 331 328 332 336 334 334 333 330 338 348 348 346 347 347 348 347 347 346 345 346 347 348 348 348 347 350 351 353 353 352 351 351 351 352 352 352 353 352 353 352 352 352 352 353 353 353 353 354 355 356 356 356 356 356 355 353 353 346 339 337 336 336 337 337 337 338 337 336 336 336 336 338 339 338 338 337 336 335 336 337 336 336 335 333 333 333 333 334 334
324 326 321 318 320 317 319 329 331 330 330 329 331 334 334 334 342 350 348 343 344 345 345 346 346 346 345 345 346 347 348 348 348 349 350 353 354 352 351 352 352 352 353 353 353 354 354 354 354 353 353 353 353 354 355 355 356 356 357 357 357 356 353 354 353 345 337 336 336 336 336 336 336 337 337 337 336 335 336 339 339 338 337 337 336 337 337 337 337 337 336 335 334 333 334 334 334
323 330 327 320 322 320 320 326 326 326 327 324 328 337 335 330 338 352 347 340 342 342 343 345 345 347 347 345 346 347 348 349 348 349 350 352 353 351 352 353 352 353 354 354 354 354 355 355 355 354 354 355 355 355 356 356 357 356 357 356 356 355 353 354 353 344 336 335 335 335 335 335 335 336 337 337 336 335 337 339 338 337 337 336 337 337 337 337 337 336 336 335 335 335 334 334 334
322 332 326 318 325 325 319 325 331 330 326 325 327 338 343 336 338 354 350 343 344 342 344 345 345 352 351 347 347 347 348 349 349 350 351 352 351 351 352 353 353 354 354 355 355 355 356 355 356 355 356 356 356 356 356 356 356 356 356 356 355 354 354 355 351 341 335 334 334 335 334 334 336 337 338 337 335 336 338 339 338 336 336 337 337 337 336 337 336 335 335 335 334 334 334 334 333
322 322 320 322 329 328 321 320 328 326 322 327 328 328 333 332 338 352 351 347 347 344 345 344 345 353 353 349 348 347 348 349 349 350 351 352 351 351 352 353 354 354 354 355 356 356 356 356 357 357 356 357 356 356 356 356 356 356 356 355 355 354 354 355 351 340 335 334 334 334 335 335 337 337 337 337 335 336 337 337 336 335 335 336 337 336 335 335 335 335 335 334 334 334 334 334 334
325 318 322 327 325 331 332 323 323 323 321 327 326 322 322 323 335 356 352 346 348 346 345 342 345 353 353 349 347 347 348 348 350 351 350 352 352 350 352 353 353 354 354 355 356 356 357 356 357 357 356 357 357 356 356 356 356 355 355 355 355 355 355 355 350 341 336 335 335 335 335 336 337 337 337 336 335 335 336 336 335 334 335 336 337 336 335 335 335 335 335 334 334 334 334 334 334
325 323 327 325 318 323 327 321 321 322 322 327 324 323 325 323 333 348 344 345 350 347 346 343 344 352 350 346 346 346 348 348 349 351 351 352 352 350 352 352 353 354 354 355 355 356 357 356 357 357 356 357 356 356 356 355 355 355 355 355 355 355 355 354 349 341 336 335 334 335 335 335 336 337 337 335 334 334 335 334 334 334 335 335 335 334 334 334 335 335 335 334 334 335 335 335 335
323 326 325 324 323 324 321 321 322 320 323 329 323 321 326 330 337 343 340 349 349 344 349 346 343 347 345 344 346 345 346 348 349 350 351 351 351 350 351 352 353 354 354 355 355 355 357 356 357 357 357 357 357 356 356 355 355 355 354 354 354 355 356 353 346 339 335 334 334 335 335 334 335 337 335 333 333 334 334 334 334 334 333 332 332 332 332 333 333 333 333 332 333 334 335 335 335
320 319 319 319 322 324 322 322 324 324 326 330 325 321 329 342 347 345 342 349 347 345 350 347 342 343 342 342 345 345 346 347 348 349 350 350 350 349 351 352 353 354 354 354 355 355 356 356 357 357 357 357 356 356 356 355 355 354 354 354 354 355 354 349 341 337 335 334 334 335 334 333 335 335 332 332 334 335 334 335 334 334 332 331 331 331 330 331 331 331 331 331 331 332 333 333 334
322 319 319 320 320 320 318 318 322 323 323 328 327 319 326 344 349 345 343 345 344 343 346 346 344 342 341 343 344 345 347 346 347 348 348 350 351 349 350 352 352 353 354 354 355 355 356 356 356 357 357 356 356 356 355 355 354 353 354 354 354 354 352 346 340 336 335 334 335 335 333 333 335 333 331 332 335 335 335 335 335 334 333 331 332 332 332 332 332 332 332 332 332 331 331 331 332
Wind_Speed
13 14 14 12 12 9 3 1 2 2 3 3 1 1 0 2 3 3 3 3 3 0 2 5 5 4 4 6 7 6 6 3 1 2 2 3 11 10 9 14 16 16 17 17 16 18 19 19 20 22 24 24 24 24 24 26 25 24 24 24 23 23 23 23 22 20 20 21 20 20 19 18 17 17 16 16 16 15 13 12 11 10 10 10 10 10 9 9 8 8 7 7 7 7 7 7 7
13 14 14 12 9 4 1 2 3 2 4 2 3 0 1 3 4 4 4 3 2 2 5 8 8 7 7 9 7 4 6 6 2 3 3 10 14 10 12 16 17 18 18 18 17 18 18 18 20 21 22 22 24 25 25 27 27 24 24 24 22 22 23 22 21 20 20 20 20 19 19 18 17 16 16 16 15 14 13 11 10 10 10 10 10 9 9 8 8 7 7 7 7 6 6 6 6
14 15 16 12 4 1 1 3 2 3 4 2 2 2 1 3 4 3 3 3 5 8 8 7 7 5 5 7 4 3 3 4 6 6 6 12 11 10 15 16 18 19 19 19 17 18 18 18 19 19 20 20 22 24 25 26 26 24 22 23 23 22 22 22 20 20 20 20 19 19 18 17 17 16 16 15 14 13 12 10 9 9 9 9 9 8 8 7 7 7 7 6 6 6 6 6 6
16 15 14 9 1 2 2 2 2 4 4 3 0 2 1 3 5 5 4 6 7 7 5 4 4 3 5 7 3 4 4 4 5 5 6 8 10 14 17 17 19 19 19 18 17 18 18 18 18 19 19 20 21 21 22 24 24 23 22 22 22 21 21 20 20 20 20 20 19 18 17 16 16 15 15 14 12 11 10 9 8 9 9 8 8 7 7 7 6 6 6 6 6 5 5 5 5
16 13 10 4 2 1 1 2 2 3 3 4 2 3 2 4 6 7 6 5 4 3 3 4 3 1 6 5 1 2 4 4 4 4 6 9 15 19 17 18 19 19 19 18 18 18 18 18 19 20 20 20 20 21 22 21 22 21 21 21 21 20 20 20 20 20 20 20 19 17 16 16 15 14 14 12 11 10 9 8 8 8 8 8 7 6 6 6 6 6 5 5 5 5 5 5 5
15 11 5 2 2 2 1 3 3 2 2 4 4 3 5 6 6 8 8 6 5 6 4 4 4 4 6 3 3 3 3 5 5 4 9 15 19 20 18 19 18 19 19 19 19 19 19 19 20 21 20 20 20 20 21 20 19 20 20 20 19 19 19 19 19 19 19 18 17 16 15 15 14 13 12 11 10 9 8 8 7 7 7 7 6 5 5 5 5 5 5 5 5 5 5 5 5
16 8 2 2 1 1 3 4 3 2 1 2 5 7 7 6 6 9 8 5 5 6 5 4 6 7 5 1 3 4 4 7 6 8 15 20 21 20 19 18 18 18 19 20 20 19 20 20 21 21 21 21 19 20 20 19 19 19 19 18 18 18 17 17 16 16 16 16 15 15 14 13 13 12 11 10 9 8 8 7 7 7 6 5 5 5 4 4 4 4 4 4 4 4 5 5 5
13 5 1 2 1 2 4 3 2 2 2 2 4 7 8 7 7 7 6 3 3 3 5 5 5 6 3 3 4 5 8 10 8 14 20 22 21 21 19 18 18 18 19 20 20 20 21 21 21 21 21 20 19 19 19 19 18 18 18 17 17 16 16 15 14 14 14 14 14 13 13 12 11 10 9 9 8 8 7 7 6 6 5 4 4 4 3 3 3 3 4 4 4 4 5 5 5
6 2 0 2 1 3 3 2 1 1 2 4 4 6 7 7 6 5 7 5 4 5 5 4 3 6 4 5 5 3 9 12 15 19 21 21 21 21 20 19 18 19 20 21 20 20 20 20 21 21 20 19 18 18 18 18 17 17 17 16 16 15 15 15 14 14 14 13 13 12 11 10 10 9 8 8 7 7 7 6 6 5 4 3 3 2 2 3 3 3 3 4 4 4 5 5 5
3 3 1 1 2 4 3 2 1 1 2 4 4 7 7 5 5 6 8 7 6 6 5 5 6 7 7 6 4 2 9 18 21 20 19 20 21 21 20 18 18 20 21 21 20 19 19 18 19 19 18 18 17 17 17 17 17 16 16 16 15 15 15 14 14 13 13 12 11 11 10 9 8 8 7 7 7 6 6 6 5 4 3 2 1 1 2 2 2 2 3 3 4 5 5 6 6
3 2 2 3 4 4 3 2 2 2 3 4 4 5 5 5 6 5 8 8 5 6 5 6 7 7 7 5 2 6 15 20 22 20 18 19 20 21 20 17 19 21 22 21 19 18 18 17 18 17 17 17 17 16 16 16 16 16 15 15 14 14 14 13 13 13 12 11 10 10 9 9 8 7 7 7 6 6 6 5 4 3 2 1 0 1 2 2 2 2 3 4 4 5 5 6 6
2 0 3 4 3 3 4 4 4 4 4 4 5 3 4 6 7 7 9 8 6 7 4 2 6 6 6 3 2 9 16 17 20 21 19 18 19 20 20 18 19 22 22 20 18 18 17 17 18 17 16 17 16 16 16 16 16 15 15 14 13 13 13 12 12 11 10 10 9 9 8 8 7 7 6 6 6 5 5 4 4 3 2 1 2 2 3 3 3 4 4 5 5 5 5 6 7
1 3 4 3 2 3 4 4 4 5 3 4 5 4 5 5 6 9 9 8 7 5 3 4 6 4 5 3 4 8 11 15 19 21 20 18 18 20 20 19 20 21 21 19 18 17 17 18 18 17 16 16 16 15 15 15 15 14 14 13 12 12 12 11 10 10 9 9 8 8 7 7 7 7 6 6 6 5 5 4 3 2 2 2 3 4 4 5 5 5 5 6 6 7 7 7 9
3 2 4 3 2 4 4 4 5 5 3 4 3 5 5 2 4 8 10 11 5 2 5 7 6 5 4 4 4 4 9 16 19 19 19 17 18 20 20 20 20 21 20 18 18 18 17 17 18 17 16 16 15 15 15 14 14 13 12 12 11 11 11 10 9 9 9 8 8 8 7 7 7 6 6 6 5 5 4 4 3 3 3 4 5 5 5 7 7 7 7 8 8 9 8 8 10
5 1 4 3 3 3 2 4 6 6 4 4 5 5 4 2 5 5 7 9 3 3 7 6 3 4 4 6 5 7 13 20 20 19 18 17 19 19 19 20 20 20 20 18 18 18 17 17 18 17 16 16 16 15 15 14 13 12 11 11 10 10 10 9 9 9 9 9 8 8 8 7 7 7 6 6 5 5 4 4 4 4 4 5 6 7 7 8 8 9 9 10 10 10 10 10 11
4 2 4 3 3 3 2 4 5 5 4 5 6 6 5 3 5 3 2 5 7 7 4 4 2 1 5 4 5 13 20 22 21 21 19 19 19 18 19 20 20 20 19 18 18 18 18 17 18 17 17 17 16 15 15 14 12 11 11 11 10 10 10 10 9 9 9 9 8 8 8 7 7 7 6 6 6 5 5 5 5 5 5 6 7 8 9 9 9 10 10 11 11 11 11 11 11
3 3 2 1 3 4 4 6 6 5 4 7 7 6 7 5 3 2 5 6 9 9 1 3 1 2 7 5 12 22 23 24 23 22 21 21 19 18 18 18 20 20 19 19 18 18 18 18 18 17 18 18 17 16 15 14 13 12 12 11 10 10 10 10 10 10 9 9 8 8 8 8 7 7 6 6 6 5 6 5 6 7 7 8 8 9 10 9 10 11 10 12 13 12 12 11 11
3 2 2 2 4 4 6 9 7 6 8 11 9 8 10 9 6 4 8 6 6 6 3 4 5 6 10 13 21 24 24 25 23 23 21 20 19 18 19 19 20 20 20 19 18 18 19 19 18 18 18 18 17 16 16 15 13 13 12 12 11 11 10 10 10 10 10 9 9 8 8 8 7 7 6 6 6 5 6 6 7 8 8 10 10 11 10 9 10 11 11 12 12 12 12 10 10
3 3 2 3 5 4 5 9 8 8 11 12 10 10 9 9 10 6 7 7 5 6 4 5 8 8 11 16 23 23 23 23 21 22 20 19 19 17 18 20 20 20 20 20 19 19 20 20 19 19 19 19 18 17 16 16 15 14 14 13 12 12 11 11 11 11 10 10 9 9 9 8 7 7 7 6 6 6 7 8 8 9 9 10 11 11 11 9 10 11 10 11 11 12 12 10 9
2 3 2 5 6 3 3 9 9 9 13 13 11 9 5 6 9 6 9 10 6 6 6 7 8 9 11 14 19 23 22 20 20 20 18 18 18 17 18 20 21 21 21 21 20 20 20 21 20 19 19 20 19 18 17 17 16 15 15 15 14 13 13 12 12 12 12 11 10 10 9 9 8 7 7 7 8 8 9 9 9 10 10 11 11 12 11 10 10 11 11 12 12 12 11 10 10
2 3 4 6 5 4 4 9 9 10 14 14 11 9 6 6 6 7 12 10 4 6 9 10 13 13 14 14 17 21 20 17 18 18 17 17 17 17 18 19 20 21 21 21 20 20 21 21 21 21 20 21 20 19 19 18 17 16 16 15 15 14 14 13 13 13 12 12 11 10 9 9 8 8 8 8 9 9 10 10 10 10 10 11 11 11 11 10 10 10 11 11 11 11 11 10 10
2 3 5 4 5 5 5 8 10 11 12 12 12 11 9 7 5 10 14 10 6 9 10 11 15 17 16 16 17 18 17 16 17 17 18 18 19 19 19 20 19 20 21 21 21 21 20 21 21 22 21 21 21 20 19 19 18 17 17 16 16 15 14 14 14 14 13 12 11 10 10 9 9 9 8 9 9 10 11 10 9 9 10 10 10 10 11 10 10 9 10 10 10 10 10 9 8
2 4 4 6 6 5 6 9 11 13 12 12 13 10 10 9 5 10 13 6 4 7 10 10 13 17 20 18 17 16 15 14 16 19 19 20 21 21 22 22 21 21 21 22 23 22 20 20 22 22 22 22 21 20 19 19 19 18 17 17 17 16 15 15 14 14 13 12 11 11 11 10 10 10 10 10 10 10 10 10 9 9 9 9 9 10 11 10 10 9 10 11 10 10 9 8 7
3 4 4 6 8 7 8 11 12 14 15 13 11 10 12 12 8 9 8 3 2 8 10 10 12 17 20 17 16 16 15 16 18 21 21 22 23 23 23 23 22 23 22 22 23 24 22 21 22 23 23 23 22 21 20 20 20 19 18 18 18 17 16 16 15 14 13 12 12 11 11 11 11 11 11 10 10 10 10 9 8 8 9 9 9 10 11 10 9 9 10 11 11 11 10 9 8
4 5 5 4 6 7 10 12 13 12 11 9 11 12 12 9 8 9 6 1 6 11 12 12 13 15 15 14 15 15 14 16 17 19 20 20 21 21 21 22 22 22 23 24 24 25 25 23 23 24 24 24 23 23 22 21 21 20 20 19 19 18 17 16 15 14 13 13 12 12 12 12 12 12 12 11 10 10 10 9 8 8 9 9 9 10 10 10 10 10 10 11 12 13 13 12 10
5 5 4 4 5 8 11 12 13 11 8 9 13 10 6 6 8 5 3 5 9 11 13 13 14 14 13 13 13 13 12 14 17 19 20 20 20 20 21 22 22 24 25 24 24 25 25 24 24 24 24 24 24 23 23 22 22 22 21 21 20 19 18 16 15 14 14 13 13 13 13 13 12 13 12 11 11 11 10 10 10 10 10 9 9 9 9 10 11 11 11 12 14 15 15 13 12
5 3 2 6 7 8 11 12 10 9 8 12 15 8 5 7 6 3 3 8 11 12 13 13 14 15 14 13 12 12 12 15 18 19 18 18 19 21 22 22 23 24 24 23 24 25 24 24 24 25 24 24 24 24 24 23 23 23 22 21 20 19 17 16 15 15 14 14 13 13 13 13 13 13 13 12 12 12 11 11 11 11 11 10 11 10 10 11 13 13 14 15 16 16 17 15 14
1 4 7 6 8 8 9 12 10 8 6 9 13 8 5 4 2 4 7 11 13 14 13 12 14 13 12 13 11 10 11 16 19 17 17 18 20 22 22 24 25 24 24 25 25 25 24 25 24 25 24 24 24 24 24 24 23 23 22 21 20 19 17 16 16 15 15 14 13 13 13 13 13 14 13 13 13 13 13 12 12 12 12 12 13 14 14 14 14 15 15 16 16 16 16 15 13
3 8 8 5 8 7 6 9 9 9 5 7 13 8 3 6 5 4 9 11 13 14 14 13 12 11 11 11 10 9 11 16 17 17 18 20 21 22 22 25 26 25 26 26 26 25 25 25 25 25 24 24 25 24 24 24 23 23 22 21 20 19 17 17 16 16 15 14 14 14 13 13 13 14 13 13 14 15 14 14 14 13 12 13 14 15 16 15 14 14 13 13 13 12 13 12 12
4 5 7 5 7 4 5 5 7 8 7 12 12 4 6 9 6 7 11 12 13 12 12 12 11 10 10 10 9 9 12 14 16 18 21 21 22 24 24 25 26 27 27 26 26 26 26 26 26 26 25 25 25 24 24 24 23 22 21 20 19 18 18 18 17 16 15 15 14 14 13 13 13 13 14 15 16 16 16 16 16 14 13 13 11 11 12 12 12 12 11 10 10 10 10 10 11
5 4 5 4 5 6 5 3 8 8 7 11 7 1 8 8 6 9 12 13 15 13 12 12 10 10 9 9 10 9 11 14 17 21 23 23 24 25 25 25 26 27 26 26 27 27 27 27 26 27 26 26 25 25 24 24 22 21 20 19 18 18 18 18 17 16 16 15 14 14 13 13 13 13 15 16 18 18 17 17 15 14 13 10 7 7 8 8 9 9 8 8 9 9 9 9 11
2 4 3 1 3 6 4 4 8 9 9 9 1 1 5 5 7 10 11 13 15 14 13 13 11 11 11 9 10 9 10 14 18 22 24 25 25 26 26 27 27 28 27 28 28 28 27 27 27 27 27 26 26 25 24 23 22 21 20 18 17 17 18 18 17 16 15 14 14 14 13 14 14 15 16 18 19 17 16 16 13 10 9 6 4 4 4 5 5 5 5 6 7 7 8 9 9
3 2 5 5 4 4 3 4 6 7 10 9 3 3 2 2 8 10 11 13 13 12 12 13 12 12 11 10 9 9 9 11 14 19 24 25 25 27 27 28 29 29 29 29 29 28 28 28 28 27 27 27 26 25 24 23 23 21 20 18 17 17 18 18 17 16 16 15 15 15 14 15 15 17 18 18 16 14 13 12 7 4 4 3 2 2 2 3 3 3 3 3 5 6 6 7 6
3 1 4 4 4 6 4 4 6 5 8 10 5 4 3 3 9 12 11 13 13 12 12 13 11 10 10 10 10 9 10 10 11 17 24 25 26 27 27 28 29 29 30 30 29 29 29 29 29 28 27 26 26 25 24 24 23 21 20 19 18 18 18 18 17 17 17 16 16 17 17 18 17 17 16 12 10 8 6 4 2 2 2 1 1 2 2 2 3 3 3 3 4 6 7 7 7
6 4 5 3 3 6 8 7 8 9 9 8 5 5 4 3 10 12 12 14 13 13 13 12 12 11 10 10 10 10 11 11 13 19 25 26 27 27 28 28 27 28 29 30 30 30 30 30 29 29 28 27 26 25 24 24 23 22 21 21 20 20 19 18 18 18 18 18 19 18 18 18 16 13 10 7 5 4 4 4 3 3 2 1 2 4 4 4 4 5 5 5 5 7 8 9 9
10 6 6 7 6 7 11 7 7 12 10 8 8 7 6 7 11 13 13 13 13 12 11 10 11 11 10 10 9 10 11 12 16 22 25 26 28 28 28 28 27 29 30 30 30 30 30 30 29 29 29 28 26 26 25 25 25 24 24 23 23 22 21 20 20 20 20 20 19 17 17 15 11 9 7 5 5 5 5 5 4 3 3 3 5 6 6 6 6 7 7 7 8 8 8 9 8
9 6 5 6 6 7 10 5 2 10 9 8 8 5 6 10 12 14 13 12 12 12 11 11 11 11 10 11 11 12 12 13 16 22 25 26 28 29 28 28 27 27 28 29 29 29 30 30 29 29 29 28 27 27 27 27 27 26 25 25 25 24 23 22 21 21 20 18 16 15 15 12 9 8 8 7 6 6 6 5 4 4 5 6 7 8 8 9 9 9 9 9 9 9 8 8 6
6 6 6 5 6 6 5 2 2 8 7 5 4 4 6 8 11 12 12 13 14 15 14 14 14 12 11 12 13 13 11 10 11 16 21 25 26 28 28 27 27 28 29 30 30 31 32 31 31 31 30 29 29 29 28 28 28 27 26 26 25 24 23 23 21 20 18 17 15 14 13 11 10 10 9 8 8 7 7 7 6 7 7 8 8 9 10 10 10 10 10 9 9 9 8 7 6
4 4 6 5 5 3 1 1 3 6 5 3 3 4 4 3 7 10 12 15 15 15 15 14 14 13 11 12 13 12 11 9 9 12 17 23 26 27 27 27 29 30 31 32 32 32 32 31 32 32 31 31 30 30 29 29 28 27 26 24 23 22 22 22 20 19 18 16 15 15 14 13 12 12 11 10 10 9 9 9 9 9 9 8 8 9 10 10 10 9 9 9 8 7 6 5 4
4 4 5 4 4 5 5 5 6 6 2 1 5 2 3 1 4 7 12 13 10 9 11 10 11 13 14 15 13 12 13 12 11 12 13 19 23 25 27 28 29 30 30 31 32 32 32 32 33 33 32 31 31 31 31 30 28 26 25 23 21 21 21 20 19 19 18 16 15 14 14 14 13 13 12 12 11 12 11 10 10 9 8 8 8 8 8 8 7 7 6 6 6 5 4 2 2
4 5 6 4 5 8 5 4 6 4 1 2 6 4 5 3 6 8 9 9 8 7 9 9 10 12 12 12 11 12 13 13 13 13 12 15 20 24 28 29 29 29 30 31 33 33 34 34 34 34 33 32 32 32 31 30 28 26 24 22 19 19 19 18 17 18 17 15 15 14 13 13 12 12 12 12 12 12 11 10 8 7 7 8 7 6 6 6 5 5 4 4 3 3 2 2 2
4 6 8 8 8 8 6 9 8 4 3 3 5 2 6 4 8 10 7 8 11 8 9 12 12 11 11 10 11 12 12 12 12 13 13 14 18 23 26 29 29 29 32 34 35 36 36 36 36 34 34 33 32 32 31 31 29 28 26 23 20 19 18 17 17 18 17 15 14 13 12 11 11 10 10 11 11 10 9 8 6 5 6 6 6 5 5 5 5 4 3 3 2 1 2 2 1
3 6 9 9 9 8 9 12 9 5 5 5 6 6 5 4 7 11 8 9 12 9 10 13 12 12 12 11 12 12 11 11 11 11 12 14 18 20 23 27 30 32 34 35 35 36 36 36 36 35 35 34 33 32 32 32 31 30 28 27 25 23 21 19 18 16 15 14 13 13 12 10 9 9 9 10 10 9 8 7 5 4 4 4 5 6 5 4 4 3 2 2 2 1 2 1 1
4 6 10 10 9 10 11 12 9 6 3 1 4 4 2 4 6 8 9 9 10 11 13 14 13 14 14 13 13 13 13 13 11 11 12 14 18 21 24 29 32 34 35 35 34 35 36 36 36 36 36 35 34 33 33 33 32 31 30 28 27 26 24 21 19 16 14 15 15 14 12 11 10 9 9 9 9 10 9 8 5 5 5 5 5 6 5 5 4 3 2 1 1 1 1 1 0
6 6 9 9 9 9 11 10 7 4 4 2 4 3 1 6 6 2 8 10 11 15 18 17 16 16 15 15 15 14 14 14 13 13 13 14 19 25 28 30 32 34 33 34 35 36 36 36 36 36 36 35 35 34 34 33 33 32 31 29 28 26 24 21 19 17 16 17 17 15 14 12 11 11 10 8 9 10 10 9 7 6 6 5 6 6 5 4 4 4 3 2 2 2 1 1 1
5 6 7 5 5 5 6 8 5 4 4 6 7 6 5 6 5 2 5 8 13 16 17 18 17 16 16 16 16 15 13 12 13 13 13 16 22 27 28 29 31 32 33 34 35 35 35 35 35 35 35 35 35 34 34 34 33 32 31 30 29 26 24 21 19 18 19 20 18 17 15 14 13 12 10 8 9 10 11 10 8 8 7 6 6 6 6 5 5 5 4 4 3 3 3 2 2
5 7 6 6 5 5 3 1 3 4 3 7 10 12 9 6 5 4 6 10 16 16 14 14 15 15 16 16 16 16 14 12 12 12 12 17 22 25 25 26 29 30 31 32 33 33 34 35 34 34 35 35 34 34 34 34 33 33 32 31 30 27 25 23 21 20 21 22 20 18 17 15 14 13 11 9 10 11 11 10 9 9 7 6 6 6 6 5 5 5 4 3 4 4 5 4 4
6 5 5 4 2 4 4 4 3 4 4 6 10 11 9 8 6 6 11 15 17 17 15 15 17 18 18 16 16 16 14 13 12 12 12 13 15 18 22 25 26 28 28 30 32 33 33 34 34 34 34 34 34 34 34 34 33 33 32 31 30 28 26 25 23 23 23 23 21 19 18 17 16 15 13 11 12 12 11 11 11 10 8 7 7 6 6 4 4 4 4 4 4 4 5 5 5
5 5 5 5 1 1 1 1 1 3 6 6 7 9 6 8 8 8 12 15 15 15 16 17 18 19 18 17 17 15 13 13 12 12 12 12 12 14 19 23 24 26 28 31 33 33 33 34 35 35 35 34 34 34 34 34 34 33 33 32 31 29 27 26 25 25 24 23 22 20 19 19 18 17 15 14 14 13 12 13 13 11 9 8 7 7 6 5 4 4 5 5 4 3 4 5 5
5 6 6 5 3 2 3 3 0 2 5 4 4 8 4 6 7 9 14 17 17 16 17 18 15 14 16 16 16 14 13 14 13 12 13 13 12 15 20 23 25 27 29 32 33 33 34 33 34 35 35 35 35 35 35 34 34 34 34 33 31 30 28 27 27 26 25 24 23 22 21 20 19 18 16 15 14 13 13 14 13 11 10 9 8 7 6 6 6 5 6 6 5 4 5 5 5
6 5 6 6 5 5 4 4 3 4 3 2 3 5 5 4 4 9 14 15 14 13 14 14 9 7 10 11 11 12 13 13 12 13 14 14 15 19 22 24 26 28 30 31 32 33 33 33 35 36 35 35 35 35 35 35 35 34 34 33 32 30 29 28 27 27 26 24 23 22 21 19 18 17 16 15 14 13 14 15 13 11 10 10 10 9 8 8 8 7 7 7 6 6 7 7 7
4 4 5 5 7 6 3 4 6 5 2 1 2 3 5 5 5 6 5 6 8 11 11 10 8 6 8 9 11 12 12 12 13 13 14 15 17 20 23 24 27 29 30 31 32 32 34 34 35 37 37 36 36 36 36 35 35 35 34 33 32 31 30 29 28 27 26 24 23 22 20 19 18 17 16 15 14 14 15 15 13 11 12 11 11 10 9 9 9 8 8 8 7 7 8 9 9
3 3 4 5 6 7 4 2 2 3 2 2 3 3 3 2 6 7 3 5 9 9 10 12 10 7 9 10 12 12 12 13 14 14 15 15 16 19 23 26 27 28 30 32 34 36 38 37 36 37 37 35 36 37 37 36 35 35 34 34 33 32 31 30 29 28 26 24 22 21 19 18 18 17 16 15 15 15 16 15 13 12 12 12 12 11 10 10 10 9 9 9 9 9 10 11 11
5 4 6 3 3 3 3 2 1 3 2 4 2 5 4 2 3 6 2 7 12 9 11 13 8 7 10 11 12 13 15 15 15 15 15 14 14 19 24 27 30 32 34 36 38 39 38 37 37 36 36 37 38 38 37 36 36 35 35 36 35 34 32 30 29 28 25 23 22 20 19 18 17 17 16 15 15 16 16 15 14 13 12 13 13 13 11 11 11 11 11 11 11 11 12 12 12
3 4 6 5 3 1 1 3 2 1 3 4 3 3 4 5 5 5 5 10 13 12 12 11 8 10 12 12 13 14 15 13 13 14 13 12 14 19 24 27 30 33 34 36 38 36 35 35 35 36 37 38 37 35 36 36 36 36 36 37 36 34 32 30 28 27 25 24 22 20 19 17 16 16 15 15 16 16 16 15 14 13 13 14 14 13 13 12 12 13 12 12 12 12 13 13 13
2 3 4 2 3 5 3 3 4 4 4 3 3 2 3 6 7 7 11 13 13 13 11 10 12 14 14 13 12 12 13 13 13 13 13 14 16 20 26 29 31 34 36 36 35 34 35 36 35 35 35 35 34 34 36 37 37 36 36 36 36 34 32 29 27 26 25 23 21 20 18 17 16 16 16 16 17 17 16 15 14 13 13 13 13 13 12 12 13 13 12 12 12 13 14 14 14
3 3 4 2 1 3 2 1 3 4 4 4 3 3 5 7 6 10 14 13 13 14 12 12 14 14 15 14 12 12 13 13 13 13 14 15 15 20 26 30 31 32 32 30 31 33 35 35 34 35 34 34 35 37 38 37 35 35 35 36 35 34 32 29 27 25 24 22 21 19 18 17 17 17 17 18 18 17 16 15 15 14 13 13 13 13 12 12 13 13 13 13 13 14 14 14 14
8 7 6 6 4 3 2 4 1 2 3 5 5 4 7 7 6 9 13 11 11 13 13 13 13 13 14 12 11 13 13 14 14 14 14 14 13 17 23 26 26 26 26 28 30 32 33 34 36 37 36 36 38 39 38 36 35 36 37 37 36 34 32 29 27 25 23 21 20 19 17 18 18 18 18 19 18 17 17 17 17 16 15 14 14 14 14 14 14 15 15 15 15 15 15 15 15
Wind_Direction
143 145 143 148 148 138 128 39 56 9 68 77 20 82 83 112 121 116 124 147 143 210 51 89 96 93 99 114 127 98 38 17 161 135 139 145 136 135 132 136 137 132 130 124 125 131 133 137 137 140 142 142 141 138 140 141 143 147 145 143 142 136 133 134 135 136 137 136 135 137 139 142 144 145 148 149 146 141 137 133 131 129 127 124 120 115 112 111 108 103 97 90 81 71 63 60 58
145 142 139 139 142 137 27 31 76 25 59 64 329 60 162 92 108 141 152 158 124 97 83 90 87 76 92 109 120 98 36 21 75 96 92 127 129 132 135 136 134 131 132 127 128 131 131 134 134 136 138 138 138 137 139 142 145 147 143 138 135 131 133 135 135 136 138 138 137 141 143 144 146 147 148 149 146 141 138 135 134 131 126 124 120 115 111 108 104 99 93 86 78 69 60 53 51
146 142 139 139 130 93 48 36 90 89 76 101 326 298 173 114 125 131 131 117 114 118 106 97 87 73 82 86 57 38 53 52 91 97 113 132 130 139 139 132 130 131 131 129 130 132 132 133 132 133 135 134 135 135 135 137 140 139 134 130 131 131 133 135 136 137 139 140 141 143 145 146 148 148 148 147 146 143 141 138 134 126 122 122 118 114 109 105 98 91 86 79 73 67 58 50 46
145 142 144 150 94 32 71 46 117 111 114 150 173 264 195 132 128 101 102 113 126 124 107 95 67 12 70 87 69 60 87 96 103 106 127 145 146 149 141 131 133 135 133 132 134 134 135 136 136 136 137 136 133 132 131 132 134 133 131 130 132 133 134 134 136 138 139 141 142 145 147 148 149 150 149 146 145 144 141 136 132 124 122 122 119 115 108 100 90 83 77 71 65 57 51 44 36
139 142 148 153 68 82 102 90 110 97 150 168 151 221 170 136 127 110 106 101 107 90 91 106 77 11 76 84 131 92 99 112 128 124 123 142 147 149 144 138 140 138 137 136 136 134 135 139 141 139 138 137 134 133 132 131 133 133 132 132 133 134 135 136 137 139 141 143 144 147 149 150 152 151 148 147 146 145 141 138 134 130 127 125 121 115 104 93 83 77 70 65 59 48 40 33 25
134 136 131 76 79 150 103 93 100 91 177 168 147 180 153 142 131 118 105 79 57 55 72 93 106 113 85 63 58 88 158 134 134 150 135 141 147 149 148 144 142 139 140 139 136 134 133 137 142 140 139 138 137 136 134 134 135 135 135 135 135 136 138 139 141 142 144 147 149 151 152 153 153 152 151 151 150 148 144 142 138 134 131 128 122 110 97 87 80 74 68 59 51 42 32 23 15
140 129 75 59 64 86 92 109 129 130 62 151 153 152 150 146 134 121 108 88 62 47 58 90 116 108 83 99 75 54 123 133 139 153 145 144 148 150 150 147 143 141 142 141 137 135 133 136 141 142 141 140 138 137 136 138 139 137 138 139 138 139 141 143 143 144 146 150 152 154 155 156 156 156 157 155 153 151 147 143 141 137 134 131 117 100 86 83 75 68 62 54 44 34 23 14 8
141 122 42 100 44 34 87 99 120 171 65 75 134 138 146 145 137 122 105 96 92 72 83 105 106 96 65 60 88 54 88 123 145 147 145 145 148 151 152 147 145 146 144 142 138 137 136 136 140 142 143 142 140 138 139 141 141 141 142 144 143 142 142 143 143 144 147 150 152 154 156 157 158 160 159 157 154 152 150 147 145 143 139 130 111 92 78 76 67 58 50 42 32 23 13 4 359
123 66 64 100 73 53 71 49 56 149 86 97 109 122 133 136 133 116 104 92 107 106 99 117 86 101 111 72 94 77 86 122 137 140 144 147 151 153 154 149 147 150 147 143 140 139 138 139 139 140 143 142 140 139 141 143 143 145 145 146 145 144 143 142 143 144 147 149 152 153 155 156 157 158 159 157 155 157 156 154 152 148 143 131 110 87 69 63 52 42 31 23 19 10 360 349 343
58 26 144 101 77 74 66 16 42 66 80 104 112 128 135 136 118 112 114 107 111 107 97 88 79 110 124 92 88 95 116 130 132 137 145 150 155 156 157 152 150 152 150 146 143 142 140 140 139 139 143 143 141 141 142 143 145 147 147 149 147 147 146 145 146 147 149 149 150 151 152 153 156 156 156 157 156 160 158 158 158 154 155 148 116 76 41 29 17 12 8 8 10 359 349 338 329
28 353 110 74 74 106 141 95 90 93 89 94 107 136 136 133 112 102 109 105 91 97 113 87 95 119 106 90 75 117 130 133 134 139 148 154 159 161 161 155 152 154 153 150 146 145 144 143 141 142 145 145 145 145 145 146 147 149 149 151 150 151 150 150 151 152 153 151 151 151 152 154 155 156 158 159 161 165 161 164 167 169 185 190 167 356 343 342 326 328 345 352 356 347 343 330 318
47 231 74 89 114 146 163 129 122 110 105 120 144 172 136 136 126 124 120 115 107 108 140 118 138 139 93 81 101 129 134 135 141 145 150 155 161 165 164 159 156 157 156 153 151 150 149 149 147 147 150 149 149 149 151 152 152 152 152 153 154 156 156 156 158 158 159 156 157 156 157 158 158 162 164 166 170 174 169 176 183 190 222 263 294 315 319 314 308 315 328 332 333 327 330 321 313
113 168 87 97 148 130 133 126 135 120 126 173 171 160 133 142 144 140 121 113 119 125 158 138 150 133 86 100 110 137 140 140 146 149 153 154 161 166 166 162 157 158 157 157 157 155 155 155 153 151 154 154 153 154 156 157 158 157 157 158 158 159 159 159 160 162 164 163 164 164 165 166 167 170 173 175 179 183 179 189 201 212 251 277 295 306 308 307 306 312 319 320 318 316 321 319 318
172 168 110 106 100 115 126 123 148 145 176 203 166 145 137 140 157 146 123 120 122 144 133 122 134 105 99 133 128 166 150 147 150 151 153 151 158 163 165 165 161 160 159 160 161 161 160 159 157 155 159 159 158 160 162 163 162 161 160 160 158 158 157 157 159 161 166 169 169 170 171 173 175 177 181 184 187 193 197 210 221 235 258 269 284 292 294 300 305 310 315 316 314 315 318 315 320
178 108 97 111 107 116 147 156 156 157 192 189 154 142 122 79 134 134 121 127 120 135 123 113 126 92 148 171 160 181 155 150 152 147 147 146 152 157 163 166 165 165 163 165 166 167 166 164 163 162 165 165 164 165 165 166 164 163 162 161 159 158 158 159 162 166 171 172 172 173 175 177 180 183 188 195 199 209 218 228 240 245 263 273 281 288 289 294 302 307 311 314 314 315 316 312 320
163 89 79 93 138 158 179 163 144 154 197 172 153 133 99 89 130 118 77 109 123 146 139 135 179 108 160 173 148 158 152 150 149 144 143 142 148 153 161 166 168 170 170 173 173 173 171 169 170 169 171 170 170 170 168 168 167 167 166 166 165 164 166 166 169 172 174 175 177 178 180 184 186 188 193 202 209 220 232 241 256 259 268 276 281 287 288 293 300 303 308 310 307 308 311 311 319
117 82 78 98 167 182 176 168 166 168 168 154 160 145 125 134 138 91 83 95 129 144 120 111 118 111 142 143 142 149 149 149 147 144 142 143 149 153 161 168 171 176 178 180 180 178 174 174 175 174 175 174 175 174 173 172 171 173 173 172 171 171 173 174 177 179 180 182 183 186 186 190 194 194 198 210 219 228 244 257 272 278 278 278 278 279 282 292 294 296 302 303 300 301 302 307 317
102 102 118 165 190 197 181 176 179 154 151 162 170 159 148 149 141 114 102 97 118 110 64 84 61 77 116 129 140 147 149 149 149 147 147 150 155 158 166 173 176 181 183 185 184 181 180 180 179 179 180 179 180 180 179 178 175 179 180 178 178 180 181 182 186 185 189 189 187 192 194 197 201 206 211 222 237 247 261 272 281 284 283 281 281 280 283 290 290 293 297 297 303 305 300 303 315
115 122 112 208 203 208 179 165 170 155 155 161 162 158 159 152 139 140 130 135 138 104 82 90 86 94 112 128 139 148 152 152 155 154 154 158 163 164 168 176 179 183 186 188 186 184 186 186 185 185 185 184 185 185 184 183 182 184 186 185 186 186 187 189 194 192 194 196 194 199 202 208 212 220 228 237 253 262 268 272 276 280 282 284 285 285 288 293 293 297 301 304 310 309 304 309 316
155 124 132 243 208 206 177 160 172 160 151 151 157 155 157 165 146 148 143 142 157 148 149 134 130 138 135 137 143 151 156 157 159 159 161 165 169 171 171 176 181 186 188 189 188 188 191 191 190 190 190 189 189 189 189 190 189 190 191 192 193 193 194 196 199 200 201 202 203 207 211 218 224 232 241 249 257 264 268 271 274 277 281 283 286 288 290 295 294 296 305 309 309 306 305 309 310
152 141 187 234 189 190 198 166 164 152 151 151 152 143 148 181 154 144 141 137 179 200 190 169 156 154 148 148 149 156 161 161 162 165 167 168 173 176 178 181 183 188 188 190 191 191 194 194 195 195 195 194 193 195 193 194 195 195 196 198 199 199 201 202 203 206 207 208 210 216 220 225 234 240 247 253 258 265 272 278 281 281 281 281 284 288 293 296 294 295 300 300 300 301 303 303 300
153 223 206 193 156 182 188 157 151 149 150 145 148 151 157 169 156 158 153 149 196 206 199 176 157 154 154 152 152 159 165 165 167 170 171 173 178 179 182 184 185 189 189 191 193 194 196 197 199 198 199 199 198 200 198 199 200 200 201 203 205 205 207 209 209 211 212 215 218 224 230 235 241 246 253 259 263 269 275 281 287 289 286 284 285 287 289 292 294 296 296 294 296 299 302 302 300
183 265 220 176 174 178 154 143 147 147 149 156 161 158 150 150 160 174 169 172 218 185 170 163 156 152 150 150 154 164 169 170 173 175 178 178 181 184 184 184 186 188 190 194 196 197 197 199 202 202 203 203 203 203 203 203 205 207 207 207 210 211 212 215 216 217 218 222 226 232 238 243 248 251 258 263 270 277 279 282 287 291 289 289 289 287 284 285 289 293 293 293 297 300 304 306 303
184 264 263 196 190 174 147 145 152 155 161 167 156 145 157 163 161 175 191 246 163 141 139 144 146 145 148 153 161 168 171 175 179 181 182 183 185 187 186 187 188 188 191 195 198 200 200 201 203 205 206 207 207 207 208 209 210 211 212 213 215 216 218 221 223 225 226 230 234 239 245 250 253 257 262 267 275 278 277 279 283 290 293 295 291 284 283 284 288 294 294 294 296 299 301 301 298
184 235 261 207 181 160 144 143 152 158 160 153 144 153 170 166 142 164 194 91 117 129 130 137 141 146 154 162 166 169 173 177 180 182 184 187 188 187 189 189 188 190 193 195 199 202 204 205 206 208 209 210 211 211 212 213 214 215 216 218 218 220 224 226 229 233 235 238 242 246 250 254 256 261 266 271 276 275 272 273 281 293 301 303 296 287 286 285 288 292 293 292 292 291 289 289 289
219 231 225 169 145 140 138 140 152 156 151 145 147 155 158 128 115 148 188 123 125 127 132 142 145 153 162 167 170 170 174 177 181 183 184 188 187 187 191 191 191 194 196 197 200 204 207 207 208 210 211 213 214 214 215 216 217 218 220 222 222 224 227 230 234 237 241 244 247 250 252 255 259 264 268 271 273 271 269 272 279 290 297 299 294 287 286 286 286 287 286 287 287 286 287 287 287
256 249 125 132 129 128 136 140 151 146 149 158 150 147 144 134 127 170 196 142 135 132 139 151 152 161 167 168 174 174 177 183 184 183 182 185 187 190 191 191 195 198 199 199 202 206 208 209 210 211 212 214 215 215 217 218 218 220 222 223 225 227 230 233 236 239 243 245 248 250 252 256 260 265 268 270 270 268 270 274 276 282 287 289 288 285 283 285 284 283 284 286 287 288 289 289 287
238 127 75 79 104 104 130 137 146 137 145 165 138 116 124 144 214 201 171 151 144 142 148 159 160 166 170 170 175 175 183 188 185 184 185 188 191 193 192 193 197 199 201 203 206 208 209 210 211 211 212 214 216 217 218 219 220 221 223 225 226 228 232 236 237 240 241 243 246 249 252 255 259 264 268 270 270 271 272 272 273 277 281 284 288 289 286 285 284 283 284 286 287 289 290 288 283
120 124 89 69 87 104 148 136 148 143 140 157 121 91 142 197 235 173 154 153 147 147 153 163 167 168 171 174 175 178 187 187 186 191 193 194 195 196 196 198 198 199 204 206 207 208 210 211 211 212 213 214 217 218 219 221 222 223 225 226 229 230 233 236 237 238 239 243 246 249 253 255 260 264 269 273 275 276 275 273 273 274 280 286 289 289 286 285 287 287 288 288 288 290 291 288 284
103 110 102 103 84 132 191 141 144 135 147 162 130 107 218 216 220 156 154 156 147 151 161 166 171 172 174 177 178 184 189 187 190 196 198 197 198 199 200 201 200 201 204 205 206 208 210 211 211 213 213 214 217 218 220 222 223 225 226 229 231 232 235 236 237 239 241 244 247 252 255 257 261 265 269 274 274 275 273 273 273 274 282 288 289 290 287 285 288 288 289 291 292 294 291 288 288
108 97 82 112 130 184 211 164 148 132 171 179 125 128 217 222 210 165 163 161 155 161 169 172 175 176 178 180 181 187 191 192 196 198 200 200 200 201 202 202 202 202 202 202 206 209 210 211 211 213 213 215 217 218 221 222 224 225 226 229 231 233 234 235 239 241 243 245 250 253 255 258 262 266 270 271 271 271 270 269 273 281 284 283 286 291 293 292 291 291 290 289 291 294 293 292 291
115 118 95 169 159 188 224 210 169 151 184 200 113 192 227 229 194 171 168 167 164 166 172 177 179 179 181 184 186 189 193 196 199 202 203 203 202 203 203 203 204 204 203 204 207 209 210 211 212 213 215 216 217 219 220 222 224 224 226 229 231 233 234 236 240 242 244 246 250 253 255 260 264 269 270 267 266 267 272 274 275 280 275 267 278 289 299 304 303 305 302 297 294 296 299 298 299
289 115 150 183 156 180 215 229 207 167 172 202 218 184 227 236 181 173 172 171 170 171 177 181 183 185 184 185 188 190 192 195 203 207 207 205 205 205 205 205 206 206 206 207 207 208 209 211 212 214 216 217 218 219 220 222 223 224 225 228 232 235 236 238 240 242 246 247 251 253 254 260 264 268 268 266 267 269 274 279 273 257 246 256 285 296 320 324 326 329 331 322 309 308 306 301 304
259 65 138 178 162 176 186 196 216 176 172 201 198 171 220 199 166 171 177 176 175 177 182 186 187 189 189 189 193 192 193 197 204 208 208 207 207 208 208 208 208 209 209 209 210 210 211 212 213 215 217 218 219 220 221 222 222 223 225 229 233 236 238 240 242 245 248 249 253 255 257 261 261 262 265 266 267 264 257 254 230 189 196 230 274 289 300 294 305 307 307 311 305 304 302 302 304
196 174 141 164 171 187 198 194 188 171 183 206 186 193 228 168 160 173 181 179 181 186 186 187 189 191 194 195 197 197 197 203 207 208 208 208 208 209 209 209 210 210 210 211 212 213 213 213 213 215 217 218 219 221 223 223 223 224 226 231 235 238 240 240 243 247 251 253 254 256 259 261 257 257 265 261 239 221 199 193 168 157 172 212 270 282 272 270 279 279 284 286 287 292 297 304 303
182 174 143 162 180 205 210 209 184 167 178 206 199 203 194 164 173 181 183 182 187 193 188 189 193 193 196 199 203 204 202 209 209 207 208 208 209 210 210 210 210 211 212 211 212 212 213 213 212 213 216 217 218 220 222 223 223 224 228 233 237 239 239 240 244 248 252 254 253 254 255 255 252 250 252 240 215 197 183 179 168 180 227 268 289 296 284 277 273 271 278 281 288 292 298 308 304
163 147 137 163 183 218 222 233 206 162 173 209 200 193 184 176 184 185 181 182 191 196 193 196 197 196 199 200 205 207 209 214 209 206 209 209 209 210 209 209 209 210 211 212 212 212 213 213 212 213 215 217 218 218 219 220 221 222 226 231 236 237 236 239 243 246 248 249 248 248 248 248 248 242 234 228 218 201 187 189 205 233 264 280 293 301 293 286 279 277 280 284 293 298 304 313 308
149 149 158 173 194 221 234 244 211 170 180 218 173 166 209 196 189 186 178 184 197 199 195 198 199 199 201 202 207 210 214 218 207 205 208 208 208 208 207 206 205 206 209 210 211 213 214 213 213 215 216 216 218 219 218 219 220 221 223 227 232 234 234 236 239 241 242 244 246 246 248 250 248 237 225 225 223 209 204 218 238 253 265 273 285 294 289 286 283 282 283 286 292 294 301 307 304
141 130 149 183 201 200 245 200 178 181 201 249 163 174 245 234 194 192 188 196 204 201 198 198 196 198 203 204 208 208 211 214 209 206 205 205 206 205 204 204 204 206 208 209 211 212 212 212 214 216 216 217 219 220 219 220 222 223 225 228 230 230 231 233 234 238 241 243 244 246 252 252 243 230 220 222 222 215 217 228 242 251 257 268 279 286 284 282 283 282 282 285 285 287 295 297 303
139 127 145 195 197 177 218 207 164 166 185 172 142 137 314 296 192 214 210 210 215 210 209 208 199 202 207 207 206 203 204 207 207 209 204 203 202 201 201 202 203 205 206 208 209 210 209 210 214 215 216 218 219 219 221 222 223 223 225 228 230 229 229 231 234 238 241 241 240 243 245 239 232 226 222 221 218 219 223 229 239 244 252 267 273 275 275 274 276 278 279 279 275 280 283 270 290
201 180 162 173 187 187 198 158 137 132 53 108 109 53 312 211 189 222 220 219 227 217 211 217 216 214 213 210 210 207 205 204 202 205 203 200 199 199 200 201 201 202 204 206 207 208 209 210 213 214 216 218 218 219 220 221 221 219 220 221 224 225 226 230 234 234 234 233 234 234 232 229 228 227 224 220 217 222 226 225 230 240 252 264 264 263 266 263 261 267 275 271 266 273 255 239 252
221 217 189 178 178 178 142 123 125 130 241 231 124 95 288 237 205 217 208 211 222 215 210 217 219 217 215 211 211 211 210 206 201 202 201 198 199 199 200 200 199 201 204 206 207 208 209 210 212 214 215 216 218 219 219 219 218 216 216 214 214 216 219 226 229 228 227 227 225 221 218 218 219 219 217 215 215 218 220 218 226 243 252 255 256 261 263 254 248 253 265 258 250 248 226 235 232
218 224 192 179 162 153 147 141 139 159 219 223 170 188 266 287 232 216 201 211 218 216 220 221 217 216 214 209 210 209 207 205 203 202 198 196 198 198 199 200 199 202 205 206 207 208 209 210 211 212 214 216 218 218 218 217 217 217 217 216 218 219 220 225 227 227 227 221 211 206 205 202 203 209 209 207 212 219 223 226 235 246 248 256 263 270 271 257 247 246 257 257 237 214 216 242 235
231 222 174 168 152 153 163 158 165 181 161 148 181 183 278 288 254 207 188 209 226 226 228 224 218 217 214 212 211 209 206 204 200 198 196 195 196 197 199 201 202 204 205 205 205 207 208 209 211 212 213 215 217 218 217 217 217 217 217 218 221 223 226 229 227 224 219 209 201 199 198 195 197 204 208 212 221 227 225 221 225 235 243 261 267 269 272 260 251 255 267 283 258 229 229 243 231
235 201 158 162 156 158 165 168 188 174 126 200 223 162 193 263 281 215 175 202 227 231 228 224 218 214 213 213 211 209 208 204 200 199 197 196 197 199 201 201 203 205 204 204 205 206 208 209 210 212 213 215 216 216 217 218 218 219 218 219 220 223 228 229 226 221 211 203 201 200 197 196 199 202 207 217 222 218 213 211 221 232 236 252 262 264 264 251 252 266 275 285 276 254 242 250 262
221 151 116 94 102 124 153 172 175 116 142 213 215 182 202 258 278 200 170 205 226 231 229 224 218 213 212 212 211 210 208 204 204 202 198 199 200 200 201 201 203 204 204 204 205 206 206 208 209 211 212 214 215 216 216 217 218 218 219 219 219 221 223 223 221 218 210 205 204 203 201 200 201 200 203 209 211 208 206 210 223 229 229 245 260 259 254 248 252 261 268 271 267 259 248 251 268
150 115 89 65 55 64 85 118 107 113 201 232 210 193 198 245 259 196 185 208 214 221 230 224 215 213 212 211 210 208 205 203 203 202 201 202 202 199 198 200 202 202 202 203 204 205 205 206 207 210 212 213 214 215 216 216 217 218 219 220 220 220 220 218 217 215 210 207 206 204 203 202 201 200 202 204 205 208 211 215 223 225 227 245 254 247 239 238 242 246 253 255 259 261 254 256 264
129 103 101 108 30 31 40 9 61 147 234 248 216 196 197 234 250 215 216 221 211 212 223 220 211 210 210 208 209 207 202 200 198 198 202 200 196 195 195 198 200 199 199 200 202 203 204 204 206 208 211 212 212 213 214 215 217 218 220 220 220 221 220 217 217 216 211 208 206 204 202 200 200 202 204 204 204 210 216 215 217 221 229 244 246 234 222 216 221 232 239 243 257 263 258 259 258
120 111 108 128 256 5 98 274 114 183 242 251 195 173 197 245 248 230 228 233 225 216 220 221 214 208 205 203 205 204 198 197 196 195 198 196 192 191 191 194 195 195 197 199 200 202 202 204 205 206 210 211 211 212 213 215 217 218 220 220 220 221 220 218 219 217 213 209 206 204 202 200 201 203 204 205 207 213 217 214 214 220 232 245 241 229 221 219 225 235 239 241 251 261 262 263 260
145 149 141 147 166 161 208 237 38 215 253 279 156 156 203 272 261 235 229 233 230 223 223 226 219 207 204 203 201 199 195 195 195 194 197 197 194 191 191 192 193 195 198 199 199 200 201 202 204 206 210 211 211 213 214 215 217 219 220 220 221 220 219 219 220 218 213 210 209 208 207 207 207 207 207 208 212 219 219 213 215 224 235 242 237 233 232 230 235 244 245 243 248 259 266 271 274
177 167 147 159 164 165 203 203 180 208 237 341 102 154 192 223 244 233 229 235 232 229 236 239 234 203 194 198 197 196 197 196 194 197 199 198 195 192 191 191 193 196 198 199 200 200 200 202 204 206 209 210 211 212 213 214 216 218 219 220 220 220 220 220 220 219 214 211 211 211 211 213 212 212 212 214 218 220 214 210 215 229 238 239 237 241 241 236 240 246 248 248 250 259 266 273 280
210 148 129 184 185 164 182 187 179 179 153 107 167 205 217 220 280 284 264 265 242 231 243 246 239 195 165 180 195 194 196 197 197 198 200 200 196 192 191 192 195 197 198 199 201 201 202 204 205 207 209 210 211 211 212 214 216 217 218 219 219 220 221 221 219 217 214 214 215 213 214 216 215 213 214 216 219 215 209 210 222 235 238 237 238 246 245 238 240 245 249 254 256 261 268 273 281
183 143 176 212 175 144 147 207 176 128 167 240 190 221 266 291 296 295 299 274 251 235 236 234 223 184 167 186 195 192 193 196 197 199 200 198 194 193 193 194 195 196 198 201 203 204 205 205 206 207 209 209 210 211 212 214 214 216 217 218 219 219 220 221 219 215 213 214 216 218 219 216 213 213 214 216 216 212 211 218 230 235 233 234 239 246 244 235 237 244 252 259 261 266 271 274 279
138 183 198 179 112 107 118 172 17 71 215 263 193 197 217 171 272 298 273 238 248 244 237 233 208 169 189 200 195 193 194 195 197 198 198 196 193 195 195 195 196 197 199 202 205 206 206 207 207 207 207 209 211 211 211 213 213 213 215 217 218 219 220 221 219 216 214 215 215 217 218 214 213 214 216 218 216 214 217 223 228 229 230 236 243 247 241 233 237 245 250 256 259 263 267 270 274
150 184 174 141 152 209 134 168 177 135 208 265 286 248 227 194 225 274 233 223 236 239 238 235 203 188 204 206 198 196 192 192 197 196 195 195 196 197 195 196 199 200 202 205 206 206 207 209 209 209 210 211 212 211 211 212 212 212 215 217 218 218 219 220 218 215 215 216 215 214 214 214 214 216 218 217 215 214 216 219 224 228 231 239 245 244 240 237 240 245 250 256 260 261 264 266 270
77 117 153 150 169 177 178 168 165 183 200 224 273 287 259 228 216 217 222 223 225 227 231 231 215 206 208 206 199 193 189 193 195 192 194 196 197 197 195 197 199 200 204 205 204 205 207 209 210 210 212 212 213 213 213 213 212 211 213 216 216 216 217 217 214 213 215 216 215 213 215 215 214 217 218 215 213 214 215 218 225 229 231 234 237 237 237 238 241 247 252 258 262 265 266 267 269
135 164 185 192 139 141 184 183 134 152 172 177 203 233 253 247 207 199 219 224 219 215 215 225 225 214 212 208 194 184 189 195 193 192 196 197 197 196 196 199 200 201 204 203 203 205 207 208 209 210 211 211 213 214 214 213 210 209 211 213 214 214 214 213 210 211 215 215 214 215 218 218 215 217 217 213 214 216 220 225 229 231 230 230 233 235 237 240 244 248 252 256 261 263 265 267 271
170 188 190 181 167 134 183 243 230 126 165 175 177 213 256 249 196 198 218 221 220 214 208 219 229 221 216 209 190 185 189 192 193 195 197 196 193 192 195 198 199 199 201 202 203 205 206 208 209 210 210 210 213 214 213 211 209 208 210 212 212 210 209 208 207 210 213 214 215 217 219 218 217 218 216 214 217 222 228 231 233 235 235 236 240 244 246 249 252 254 255 257 259 261 263 267 271